Regional Weather Roundup
Issued by NWS

Home | Current Version | Previous Version | Text Only | Print | Product List | Glossary On
Versions: 1 2 3 4 5 6 7 8 9 10 11 12 13 14 15 16 17 18 19 20 21 22 23 24 25 26 27 28 29 30 31 32 33 34 35 36 37 38 39 40 41 42 43 44 45 46 47 48 49 50
000
ASUS43 KOAX 302302
RWRNE

WEATHER ROUNDUP FOR NEBRASKA
NATIONAL WEATHER SERVICE OMAHA NE
600 PM CDT THU JUL 30 2015

NOTES: SATELLITE DATA IS BEING USED TO AUGMENT CLOUD COVER ABOVE
       12000 FEET.
       "FAIR" INDICATES FEW OR NO CLOUDS BELOW 12,000 FEET WITH NO
       SIGNIFICANT WEATHER AND/OR OBSTRUCTIONS TO VISIBILITY.

  * THESE STATIONS DO NOT REPORT WEATHER SUCH AS RAIN...SNOW OR FOG.

NEZ001>004-019>022-054>056-310000-
NEBRASKA PANHANDLE

CITY           SKY/WX    TMP DP  RH WIND       PRES   REMARKS
SCOTTSBLUFF    SUNNY     90  42  18 E7        30.22F
ALLIANCE       SUNNY     89  51  27 NE7       30.22F
CHADRON        SUNNY     89  43  20 CALM      30.20F
KIMBALL        SUNNY     87  40  19 NW3       30.26F
SIDNEY         PTSUNNY   85  58  39 S18G26    30.24S
$$

NEZ057>060-069>072-079>082-310000-
SOUTHWEST NEBRASKA

CITY           SKY/WX    TMP DP  RH WIND       PRES   REMARKS
NORTH PLATTE   SUNNY     89  59  36 S8        30.16F
IMPERIAL       MOSUNNY   88  54  31 SE12      30.18F
LEXINGTON      SUNNY     89  60  38 S8        30.17F
MCCOOK         SUNNY     91  58  32 SE7       30.16F HX  90
$$

NEZ005>010-023>029-035>040-094-310000-
NORTH CENTRAL NEBRASKA

CITY           SKY/WX    TMP DP  RH WIND       PRES   REMARKS
VALENTINE      SUNNY     91  42  18 N12       30.16F
AINSWORTH      SUNNY     90  52  27 NE8       30.16S
BROKEN BOW     SUNNY     87  63  44 W9        30.17F
ORD            SUNNY     89  61  38 SW8       30.13F
$$

NEZ041-046>049-061>064-073>077-083>087-310000-
SOUTH CENTRAL NEBRASKA

CITY           SKY/WX    TMP DP  RH WIND       PRES   REMARKS
GRAND ISLAND   SUNNY     88  63  43 S9        30.16F
AURORA         SUNNY     85  66  52 CALM      30.16F
HASTINGS       MOSUNNY   87  64  46 VRB3      30.16F
HEBRON         SUNNY     87  59  38 SE3       30.15F
HOLDREGE       SUNNY     86  61  41 SE5       30.17F
KEARNEY *      SUNNY     86  64  48 SW7       30.17S
$$

NEZ011>018-030>034-042>045-310000-
NORTHEAST NEBRASKA

CITY           SKY/WX    TMP DP  RH WIND       PRES   REMARKS
NORFOLK        MOSUNNY   87  61  41 S9        30.13F
ALBION         SUNNY     88  59  37 S8        30.14F
BLAIR          SUNNY     85  62  45 W6        30.14F
COLUMBUS *     SUNNY     86  64  48 SW5       30.13F
FREMONT        SUNNY     87  60  39 SW6       30.14F
TEKAMAH        SUNNY     86  69  56 SW6       30.12F HX  90
$$

NEZ050>053-065>068-078-088>093-310000-
SOUTHEAST NEBRASKA

CITY           SKY/WX    TMP DP  RH WIND       PRES   REMARKS
LINCOLN        SUNNY     89  57  33 S9        30.14F
OMAHA EPPLEY   MOSUNNY   91  58  32 VRB7      30.12F HX  90
BEATRICE       SUNNY     85  61  43 S8        30.15S
FALLS CITY     SUNNY     86  63  45 S6        30.13F
NEBRASKA CITY  SUNNY     85  58  38 W6        30.14F
$$

NEZ044-045-051>053-067-310000-
OMAHA AREA

CITY           SKY/WX    TMP DP  RH WIND       PRES   REMARKS
OMAHA EPPLEY   MOSUNNY   91  58  32 VRB7      30.12F HX  90
BLAIR          SUNNY     85  62  45 W6        30.14F
FREMONT        SUNNY     87  60  39 SW6       30.14F
OFFUTT AFB     SUNNY     88  61  40 VRB6      30.12F
WAHOO          FAIR      87  61  41 SW7       30.13F
$$


USA.gov is the U.S. government's official web portal to all federal, state and local government web resources and services.